Regional Weather Roundup
Issued by NWS Albany, NY

Home | Current Version | Previous Version | Text Only | Print | Product List | Glossary On
Versions: 1 2 3 4 5 6 7 8 9 10 11 12 13 14 15 16 17 18 19 20 21 22 23 24 25 26 27 28 29 30 31 32 33 34 35 36 37 38 39 40 41 42 43 44 45 46 47 48 49 50
000
ASUS41 KALY 221710
RWRALY

NEW YORK STATE HOURLY WEATHER ROUNDUP
NATIONAL WEATHER SERVICE ALBANY NY
1200 PM EST SAT NOV 22 2014

NOTE: "FAIR" INDICATES FEW OR NO CLOUDS BELOW 12,000 FEET WITH NO
SIGNIFICANT WEATHER AND/OR NO OBSTRUCTIONS TO VISIBILITY.

NYZ032-033-038>043-046>054-057>066-NYZ062>081-221800-
EAST


CITY           SKY/WX    TMP DP  RH WIND       PRES   REMARKS
ALBANY         PTSUNNY   32  13  45 S14       30.25F WCI  22
GLENS FALLS    PTSUNNY   30  12  47 S15       30.21F WCI  19
POUGHKEEPSIE   MOSUNNY   38  11  32 SW12G23   30.32F WCI  30
NEWBURGH       MOSUNNY   36  12  38 W14G23    30.33F WCI  27
WHITE PLAINS   SUNNY     36   9  32 SW9G20    30.34F WCI  29
ISLIP          MOSUNNY   39  15  37 SW18G26   30.37F WCI  30
NEW YORK CITY  MOSUNNY   38  12  34 SW17      30.38F WCI  28
CENTRAL PARK   SUNNY     38  11  32 W8        30.40F WCI  32
$$

NYZ005>009-017-018-044>046-055-056-221800-
CENTRAL


CITY           SKY/WX    TMP DP  RH WIND       PRES   REMARKS
FULTON         CLOUDY    36  10  34 S9G18     30.12F WCI  29
SYRACUSE       CLOUDY    40   7  25 S7        30.13F
ROME           CLOUDY    33  14  45 SE9       30.17F WCI  25
ELMIRA         CLOUDY    41  10  28 SW10      30.18F
BINGHAMTON     MOSUNNY   35   9  33 SW13      30.16F WCI  26
MONTICELLO     MOSUNNY   36  12  38 S8        30.25F WCI  29
$$

NYZ026>034-041>043-221800-
NORTH


CITY           SKY/WX    TMP DP  RH WIND       PRES   REMARKS
WATERTOWN      CLOUDY    37   7  28 S13G21    30.07F WCI  29
FORT DRUM      NOT AVBL
MASSENA        PTSUNNY   32  13  45 SW21G30   30.03F WCI  20
SARANAC LAKE   SUNNY     30   8  39 SW14      30.01F WCI  19
PLATTSBURGH    PTSUNNY   32  17  54 S16G22    30.06  WCI  21
$$

NYZ001>004-010>016-019>021-221800-
WEST


CITY           SKY/WX    TMP DP  RH WIND       PRES   REMARKS
NIAGARA FALLS  LGT RAIN  36  30  79 S21       30.04F WCI  25
BUFFALO        LGT RAIN  34  28  79 SW17      30.06F WCI  23
DUNKIRK        LGT SNOW  35  31  85 S21G35    30.08F FOG     WCI  24
JAMESTOWN      CLOUDY    28  27  93 S15       30.10F WCI  17
WELLSVILLE     LGT RAIN  35  12  38 SW10G26   30.13F WCI  27
ROCHESTER      LGT RAIN  37  15  40 SW13G26   30.07F WCI  29
PENN YAN       CLOUDY    38  10  31 SW17G26   30.11F WCI  28
$$

             KEY
       WCI = WIND CHILL INDEX
       VSB = VISIBILITY
       HX  = HEAT INDEX
$$


USA.gov is the U.S. government's official web portal to all federal, state and local government web resources and services.